SWA5611 KBOS-KMDW

Flight info

Callsign SWA5611
Flight time 2h 7m
Altitude 36000
Route HYLND7 HYLND CAM Q822 GONZZ Q29 JHW DJB ASHEN PANGG7
Aircraft B738/M-SDE2E3GHIJ4J7P2RWZ/LB1D1

Departure

Time 2026-05-03 21:31
Airport Boston Logan International Airport (KBOS)

Arrival

Time 2026-05-03 23:39
Airport Chicago Midway International Airport (KMDW)
Time Latitude Longitude Altitude Speed Heading
2026-05-03 21:04 42.36292 -71.01561 24 ft 0 kts 338°
2026-05-03 21:19 42.36274 -71.01551 30 ft 4 kts 336°
2026-05-03 21:20 42.36249 -71.01536 29 ft 4 kts 335°
2026-05-03 21:20 42.36225 -71.01520 28 ft 4 kts 336°
2026-05-03 21:20 42.36200 -71.01508 29 ft 4 kts 352°
2026-05-03 21:20 42.36182 -71.01508 27 ft 0 kts 20°
2026-05-03 21:24 42.36187 -71.01505 29 ft 5 kts 20°
2026-05-03 21:25 42.36271 -71.01464 26 ft 16 kts 19°
2026-05-03 21:25 42.36358 -71.01397 26 ft 12 kts 75°
2026-05-03 21:25 42.36330 -71.01301 26 ft 10 kts 120°
2026-05-03 21:25 42.36293 -71.01219 24 ft 13 kts 122°
2026-05-03 21:26 42.36240 -71.01086 24 ft 17 kts 114°
2026-05-03 21:26 42.36193 -71.00943 27 ft 16 kts 113°
2026-05-03 21:26 42.36148 -71.00805 25 ft 16 kts 117°
2026-05-03 21:26 42.36109 -71.00670 26 ft 15 kts 107°
2026-05-03 21:27 42.36075 -71.00539 24 ft 15 kts 110°
2026-05-03 21:27 42.36032 -71.00369 29 ft 24 kts 108°
2026-05-03 21:27 42.35972 -71.00132 27 ft 19 kts 109°
2026-05-03 21:27 42.35954 -70.99990 24 ft 15 kts 87°
2026-05-03 21:28 42.35980 -70.99811 27 ft 24 kts 75°
2026-05-03 21:28 42.36027 -70.99551 24 ft 33 kts 76°
2026-05-03 21:28 42.36083 -70.99236 25 ft 32 kts 77°
2026-05-03 21:28 42.36128 -70.98986 24 ft 19 kts 76°
2026-05-03 21:29 42.36113 -70.98858 25 ft 13 kts 142°
2026-05-03 21:29 42.36041 -70.98832 26 ft 8 kts 187°
2026-05-03 21:29 42.36015 -70.98850 24 ft 0 kts 225°
2026-05-03 21:29 42.36004 -70.98885 26 ft 5 kts 255°
2026-05-03 21:30 42.36004 -70.98886 26 ft 0 kts 255°
2026-05-03 21:31 42.35986 -70.98985 26 ft 42 kts 257°
2026-05-03 21:31 42.35855 -70.99738 26 ft 120 kts 256°
2026-05-03 21:31 42.35616 -71.01044 367 ft 155 kts 262°
2026-05-03 21:31 42.35357 -71.02522 1198 ft 168 kts 261°
2026-05-03 21:32 42.34913 -71.04023 2109 ft 181 kts 238°
2026-05-03 21:32 42.33957 -71.05202 3089 ft 187 kts 229°
2026-05-03 21:32 42.32965 -71.06376 3907 ft 197 kts 228°
2026-05-03 21:32 42.31855 -71.07673 4210 ft 226 kts 228°
2026-05-03 21:33 42.30584 -71.09164 4538 ft 255 kts 227°
2026-05-03 21:33 42.29221 -71.10758 5382 ft 262 kts 227°
2026-05-03 21:33 42.28123 -71.12650 6357 ft 253 kts 254°
2026-05-03 21:33 42.27891 -71.14964 7294 ft 250 kts 276°
2026-05-03 21:34 42.28139 -71.17265 8148 ft 253 kts 284°
2026-05-03 21:34 42.28577 -71.19577 9068 ft 256 kts 295°
2026-05-03 21:34 42.29621 -71.21510 9961 ft 258 kts 317°
2026-05-03 21:34 42.31151 -71.22879 10530 ft 276 kts 334°
2026-05-03 21:35 42.33055 -71.23788 10753 ft 304 kts 340°
2026-05-03 21:35 42.35145 -71.24644 11159 ft 321 kts 340°
2026-05-03 21:35 42.37311 -71.25535 11751 ft 332 kts 341°
2026-05-03 21:35 42.39663 -71.26045 12111 ft 353 kts 354°
2026-05-03 21:36 42.42145 -71.26122 12799 ft 359 kts 355°
2026-05-03 21:36 42.44655 -71.26178 13599 ft 363 kts 355°
2026-05-03 21:36 42.47190 -71.26245 14317 ft 366 kts 355°
2026-05-03 21:36 42.49746 -71.26328 15017 ft 369 kts 355°
2026-05-03 21:37 42.52332 -71.26425 15716 ft 372 kts 354°
2026-05-03 21:37 42.54931 -71.26530 16395 ft 375 kts 354°
2026-05-03 21:37 42.57556 -71.26641 17068 ft 379 kts 354°
2026-05-03 21:37 42.60200 -71.26756 17734 ft 382 kts 354°
2026-05-03 21:38 42.62869 -71.26871 18345 ft 386 kts 354°
2026-05-03 21:38 42.65570 -71.26988 18883 ft 390 kts 354°
2026-05-03 21:38 42.68299 -71.27107 19420 ft 394 kts 354°
2026-05-03 21:38 42.71053 -71.27244 19925 ft 398 kts 352°
2026-05-03 21:39 42.73724 -71.28124 20395 ft 395 kts 333°
2026-05-03 21:39 42.75987 -71.30125 20964 ft 393 kts 317°
2026-05-03 21:39 42.77779 -71.32920 21486 ft 395 kts 303°
2026-05-03 21:39 42.79025 -71.36255 21951 ft 400 kts 288°
2026-05-03 21:40 42.79610 -71.39974 22459 ft 403 kts 281°
2026-05-03 21:40 42.80033 -71.43770 22966 ft 407 kts 279°
2026-05-03 21:40 42.80425 -71.47594 23423 ft 410 kts 279°
2026-05-03 21:40 42.80815 -71.51455 23800 ft 413 kts 279°
2026-05-03 21:41 42.81215 -71.55350 24182 ft 416 kts 279°
2026-05-03 21:41 42.81623 -71.59253 24629 ft 416 kts 279°
2026-05-03 21:41 42.82040 -71.63164 25015 ft 418 kts 279°
2026-05-03 21:41 42.82464 -71.67104 25346 ft 422 kts 279°
2026-05-03 21:42 42.82888 -71.71018 25681 ft 425 kts 279°
2026-05-03 21:42 42.83321 -71.75021 26024 ft 427 kts 279°
2026-05-03 21:42 42.83754 -71.79033 26401 ft 429 kts 279°
2026-05-03 21:42 42.84186 -71.83050 26889 ft 427 kts 279°
2026-05-03 21:43 42.84614 -71.87041 27399 ft 425 kts 279°
2026-05-03 21:43 42.85041 -71.91035 27877 ft 425 kts 279°
2026-05-03 21:43 42.85464 -71.95010 28416 ft 423 kts 279°
2026-05-03 21:43 42.85881 -71.98946 28969 ft 421 kts 279°
2026-05-03 21:44 42.86299 -72.02895 29432 ft 421 kts 279°
2026-05-03 21:44 42.86715 -72.06842 29859 ft 421 kts 278°
2026-05-03 21:44 42.87130 -72.10793 30225 ft 421 kts 278°
2026-05-03 21:44 42.87543 -72.14744 30584 ft 421 kts 278°
2026-05-03 21:45 42.87951 -72.18655 30938 ft 421 kts 278°
2026-05-03 21:45 42.88369 -72.22667 31286 ft 422 kts 278°
2026-05-03 21:45 42.88780 -72.26634 31616 ft 423 kts 278°
2026-05-03 21:45 42.89190 -72.30609 31914 ft 424 kts 278°
2026-05-03 21:46 42.89600 -72.34593 32220 ft 424 kts 278°
2026-05-03 21:46 42.90008 -72.38572 32571 ft 424 kts 278°
2026-05-03 21:46 42.90415 -72.42558 32912 ft 424 kts 278°
2026-05-03 21:46 42.90821 -72.46550 33215 ft 425 kts 277°
2026-05-03 21:47 42.91228 -72.50561 33524 ft 426 kts 277°
2026-05-03 21:47 42.91628 -72.54519 33850 ft 426 kts 277°
2026-05-03 21:47 42.92032 -72.58527 34135 ft 426 kts 277°
2026-05-03 21:47 42.92433 -72.62527 34441 ft 425 kts 277°
2026-05-03 21:48 42.92833 -72.66525 34752 ft 424 kts 277°
2026-05-03 21:48 42.93229 -72.70508 35006 ft 425 kts 277°
2026-05-03 21:48 42.93627 -72.74514 35243 ft 425 kts 277°
2026-05-03 21:48 42.94022 -72.78507 35498 ft 425 kts 277°
2026-05-03 21:49 42.94416 -72.82505 35765 ft 425 kts 277°
2026-05-03 21:49 42.94809 -72.86510 35861 ft 428 kts 277°
2026-05-03 21:49 42.95599 -72.94598 35871 ft 431 kts 276°
2026-05-03 21:50 42.96380 -73.02652 35862 ft 423 kts 277°
2026-05-03 21:50 42.97149 -73.10646 35887 ft 428 kts 276°
2026-05-03 21:51 42.97922 -73.18756 35870 ft 437 kts 276°
2026-05-03 21:51 42.98706 -73.27011 35858 ft 438 kts 276°
2026-05-03 21:52 42.99451 -73.35272 35859 ft 437 kts 274°
2026-05-03 21:52 42.99717 -73.43558 35865 ft 436 kts 271°
2026-05-03 21:53 42.99844 -73.50442 35878 ft 436 kts 271°
2026-05-03 21:53 43.00010 -73.58716 35882 ft 435 kts 271°
2026-05-03 21:54 43.00195 -73.66974 35889 ft 434 kts 272°
2026-05-03 21:54 43.00383 -73.75225 35897 ft 434 kts 271°
2026-05-03 21:55 43.00566 -73.83465 35898 ft 434 kts 271°
2026-05-03 21:55 43.00742 -73.91709 35893 ft 434 kts 271°
2026-05-03 21:56 43.00912 -73.99957 35901 ft 434 kts 271°
2026-05-03 21:56 43.01076 -74.08192 35901 ft 433 kts 271°
2026-05-03 21:57 43.01234 -74.16427 35900 ft 433 kts 271°
2026-05-03 21:57 43.01387 -74.24654 35905 ft 433 kts 271°
2026-05-03 21:58 43.01666 -74.32863 35904 ft 433 kts 274°
2026-05-03 21:58 43.02069 -74.41010 35911 ft 432 kts 274°
2026-05-03 21:59 43.02459 -74.49202 35908 ft 432 kts 274°
2026-05-03 21:59 43.02823 -74.57384 35905 ft 431 kts 274°
2026-05-03 22:00 43.03173 -74.65569 35912 ft 431 kts 273°
2026-05-03 22:00 43.03516 -74.73747 35916 ft 431 kts 273°
2026-05-03 22:01 43.03853 -74.81921 35911 ft 431 kts 273°
2026-05-03 22:01 43.04185 -74.90090 35907 ft 430 kts 273°
2026-05-03 22:02 43.04511 -74.98259 35910 ft 430 kts 273°
2026-05-03 22:02 43.04831 -75.06437 35915 ft 430 kts 273°
2026-05-03 22:03 43.05145 -75.14609 35905 ft 430 kts 273°
2026-05-03 22:03 43.05454 -75.22767 35909 ft 429 kts 273°
2026-05-03 22:04 43.05754 -75.30930 35907 ft 429 kts 273°
2026-05-03 22:04 43.05992 -75.39034 35907 ft 429 kts 272°
2026-05-03 22:05 43.06209 -75.47193 35911 ft 429 kts 272°
2026-05-03 22:05 43.06424 -75.55344 35908 ft 429 kts 272°
2026-05-03 22:06 43.06638 -75.63524 35908 ft 430 kts 272°
2026-05-03 22:06 43.06849 -75.71690 35909 ft 430 kts 272°
2026-05-03 22:07 43.07053 -75.79860 35905 ft 430 kts 272°
2026-05-03 22:07 43.07251 -75.88030 35901 ft 430 kts 272°
2026-05-03 22:08 43.07445 -75.96217 35899 ft 430 kts 272°
2026-05-03 22:08 43.07632 -76.04403 35900 ft 430 kts 272°
2026-05-03 22:09 43.07812 -76.12528 35898 ft 430 kts 272°
2026-05-03 22:10 43.08073 -76.24801 35897 ft 430 kts 272°
2026-05-03 22:10 43.08239 -76.32983 35903 ft 430 kts 272°
2026-05-03 22:11 43.08401 -76.41166 35902 ft 430 kts 272°
2026-05-03 22:11 43.08556 -76.49357 35910 ft 430 kts 272°
2026-05-03 22:12 43.08706 -76.57533 35906 ft 429 kts 272°
2026-05-03 22:12 43.08577 -76.65680 35905 ft 430 kts 262°
2026-05-03 22:13 43.06918 -76.73493 35913 ft 433 kts 248°
2026-05-03 22:13 43.04010 -76.80739 35904 ft 435 kts 243°
2026-05-03 22:14 43.00979 -76.87889 35917 ft 434 kts 243°
2026-05-03 22:14 42.97978 -76.95055 35914 ft 434 kts 243°
2026-05-03 22:15 42.94998 -77.02220 35910 ft 434 kts 243°
2026-05-03 22:15 42.92016 -77.09380 35905 ft 434 kts 243°
2026-05-03 22:16 42.89060 -77.16546 35892 ft 432 kts 245°
2026-05-03 22:16 42.86452 -77.23874 35905 ft 431 kts 248°
2026-05-03 22:17 42.83912 -77.31334 35915 ft 431 kts 248°
2026-05-03 22:17 42.81364 -77.38740 35925 ft 432 kts 247°
2026-05-03 22:18 42.78806 -77.46083 35922 ft 432 kts 247°
2026-05-03 22:18 42.76216 -77.53472 35917 ft 433 kts 247°
2026-05-03 22:19 42.73616 -77.60862 35910 ft 433 kts 247°
2026-05-03 22:19 42.71012 -77.68246 35904 ft 433 kts 247°
2026-05-03 22:20 42.68401 -77.75630 35907 ft 433 kts 247°
2026-05-03 22:20 42.65785 -77.83009 35924 ft 433 kts 247°
2026-05-03 22:21 42.63162 -77.90388 35932 ft 433 kts 247°
2026-05-03 22:21 42.60537 -77.97755 35941 ft 433 kts 247°
2026-05-03 22:22 42.57928 -78.05056 35926 ft 432 kts 247°
2026-05-03 22:22 42.55302 -78.12389 35936 ft 432 kts 247°
2026-05-03 22:23 42.52674 -78.19703 35932 ft 431 kts 247°
2026-05-03 22:23 42.50045 -78.27006 35933 ft 431 kts 247°
2026-05-03 22:24 42.47412 -78.34298 35933 ft 431 kts 247°
2026-05-03 22:24 42.44773 -78.41590 35926 ft 431 kts 246°
2026-05-03 22:25 42.42132 -78.48865 35920 ft 430 kts 247°
2026-05-03 22:25 42.39492 -78.56120 35923 ft 429 kts 247°
2026-05-03 22:26 42.36849 -78.63367 35925 ft 429 kts 246°
2026-05-03 22:26 42.34207 -78.70592 35940 ft 429 kts 246°
2026-05-03 22:27 42.31575 -78.77770 35941 ft 429 kts 246°
2026-05-03 22:27 42.28920 -78.84994 35948 ft 429 kts 246°
2026-05-03 22:28 42.26261 -78.92211 35940 ft 430 kts 246°
2026-05-03 22:28 42.23590 -78.99442 35947 ft 430 kts 246°
2026-05-03 22:29 42.20914 -79.06673 35939 ft 430 kts 246°
2026-05-03 22:29 42.18335 -79.13948 35940 ft 428 kts 252°
2026-05-03 22:30 42.16375 -79.21458 35944 ft 427 kts 254°
2026-05-03 22:30 42.14479 -79.29058 35944 ft 427 kts 254°
2026-05-03 22:31 42.12554 -79.36636 35945 ft 427 kts 253°
2026-05-03 22:31 42.10605 -79.44181 35942 ft 427 kts 253°
2026-05-03 22:32 42.08642 -79.51719 35951 ft 426 kts 253°
2026-05-03 22:32 42.06675 -79.59243 35950 ft 426 kts 253°
2026-05-03 22:33 42.04717 -79.66705 35961 ft 425 kts 253°
2026-05-03 22:33 42.02745 -79.74208 35955 ft 425 kts 253°
2026-05-03 22:34 42.00767 -79.81706 35951 ft 425 kts 253°
2026-05-03 22:34 41.98783 -79.89204 35948 ft 425 kts 253°
2026-05-03 22:35 41.96797 -79.96685 35952 ft 425 kts 253°
2026-05-03 22:35 41.94810 -80.04150 35939 ft 423 kts 253°
2026-05-03 22:36 41.92835 -80.11545 35948 ft 423 kts 253°
2026-05-03 22:36 41.90848 -80.18965 35945 ft 422 kts 253°
2026-05-03 22:37 41.88855 -80.26383 35949 ft 422 kts 253°
2026-05-03 22:37 41.86860 -80.33788 35946 ft 422 kts 253°
2026-05-03 22:38 41.84859 -80.41190 35960 ft 422 kts 253°
2026-05-03 22:38 41.82855 -80.48585 35956 ft 422 kts 253°
2026-05-03 22:39 41.80856 -80.55934 35938 ft 421 kts 253°
2026-05-03 22:39 41.78847 -80.63299 35946 ft 421 kts 253°
2026-05-03 22:40 41.76835 -80.70655 35955 ft 420 kts 253°
2026-05-03 22:40 41.74818 -80.78012 35952 ft 420 kts 253°
2026-05-03 22:41 41.72800 -80.85347 35953 ft 420 kts 253°
2026-05-03 22:41 41.71118 -80.91444 35940 ft 420 kts 253°
2026-05-03 22:42 41.69094 -80.98759 35947 ft 419 kts 253°
2026-05-03 22:42 41.67063 -81.06080 35954 ft 419 kts 253°
2026-05-03 22:43 41.65031 -81.13386 35953 ft 419 kts 253°
2026-05-03 22:43 41.62993 -81.20688 35948 ft 418 kts 253°
2026-05-03 22:44 41.60959 -81.27955 35950 ft 417 kts 253°
2026-05-03 22:44 41.58923 -81.35208 35955 ft 416 kts 253°
2026-05-03 22:45 41.56896 -81.42411 35965 ft 416 kts 253°
2026-05-03 22:45 41.54855 -81.49643 35964 ft 416 kts 253°
2026-05-03 22:46 41.52811 -81.56864 35952 ft 416 kts 253°
2026-05-03 22:46 41.50760 -81.64091 35952 ft 416 kts 253°
2026-05-03 22:47 41.48706 -81.71308 35954 ft 416 kts 253°
2026-05-03 22:47 41.46646 -81.78520 35947 ft 415 kts 253°
2026-05-03 22:48 41.44591 -81.85699 35949 ft 414 kts 253°
2026-05-03 22:48 41.42534 -81.92870 35951 ft 413 kts 253°
2026-05-03 22:49 41.40476 -82.00021 35960 ft 413 kts 253°
2026-05-03 22:49 41.38432 -82.07106 35973 ft 412 kts 253°
2026-05-03 22:50 41.36599 -82.14313 35967 ft 408 kts 262°
2026-05-03 22:50 41.36075 -82.21766 35961 ft 403 kts 275°
2026-05-03 22:51 41.36517 -82.29201 35972 ft 403 kts 276°
2026-05-03 22:51 41.36982 -82.36637 35970 ft 403 kts 276°
2026-05-03 22:52 41.37428 -82.44091 35959 ft 404 kts 275°
2026-05-03 22:52 41.37860 -82.51577 35973 ft 406 kts 275°
2026-05-03 22:53 41.38286 -82.59095 35974 ft 409 kts 275°
2026-05-03 22:53 41.38710 -82.66672 35965 ft 411 kts 275°
2026-05-03 22:54 41.39129 -82.74270 35959 ft 412 kts 275°
2026-05-03 22:54 41.39541 -82.81835 35956 ft 413 kts 275°
2026-05-03 22:55 41.39953 -82.89464 35961 ft 414 kts 275°
2026-05-03 22:55 41.40359 -82.97106 35961 ft 414 kts 275°
2026-05-03 22:56 41.40761 -83.04754 35964 ft 414 kts 275°
2026-05-03 22:56 41.41158 -83.12405 35963 ft 413 kts 275°
2026-05-03 22:57 41.41550 -83.20047 35963 ft 413 kts 275°
2026-05-03 22:57 41.41936 -83.27686 35969 ft 413 kts 275°
2026-05-03 22:58 41.42318 -83.35334 35971 ft 413 kts 275°
2026-05-03 22:58 41.42694 -83.42978 35970 ft 413 kts 275°
2026-05-03 22:59 41.43065 -83.50621 35965 ft 413 kts 275°
2026-05-03 22:59 41.43429 -83.58229 35967 ft 413 kts 275°
2026-05-03 23:00 41.43790 -83.65871 35963 ft 413 kts 275°
2026-05-03 23:00 41.44146 -83.73511 35964 ft 413 kts 275°
2026-05-03 23:01 41.44497 -83.81161 35955 ft 413 kts 275°
2026-05-03 23:01 41.44843 -83.88818 35957 ft 413 kts 275°
2026-05-03 23:02 41.45183 -83.96429 35755 ft 414 kts 275°
2026-05-03 23:02 41.45350 -84.00229 35504 ft 409 kts 275°
2026-05-03 23:02 41.45516 -84.04033 35274 ft 411 kts 275°
2026-05-03 23:02 41.45682 -84.07850 35036 ft 413 kts 275°
2026-05-03 23:03 41.45846 -84.11662 34800 ft 412 kts 275°
2026-05-03 23:03 41.46009 -84.15482 34566 ft 412 kts 275°
2026-05-03 23:03 41.46171 -84.19292 34335 ft 411 kts 275°
2026-05-03 23:03 41.46331 -84.23100 34104 ft 411 kts 275°
2026-05-03 23:04 41.46490 -84.26903 33859 ft 410 kts 275°
2026-05-03 23:04 41.46647 -84.30700 33567 ft 410 kts 275°
2026-05-03 23:04 41.46803 -84.34491 33291 ft 410 kts 275°
2026-05-03 23:04 41.46957 -84.38279 33029 ft 409 kts 275°
2026-05-03 23:05 41.47109 -84.42024 32767 ft 410 kts 275°
2026-05-03 23:05 41.47262 -84.45830 32498 ft 410 kts 275°
2026-05-03 23:05 41.47413 -84.49638 32235 ft 411 kts 275°
2026-05-03 23:05 41.47563 -84.53443 31975 ft 412 kts 275°
2026-05-03 23:06 41.47714 -84.57269 31719 ft 413 kts 275°
2026-05-03 23:06 41.47863 -84.61102 31464 ft 414 kts 275°
2026-05-03 23:06 41.48010 -84.64946 31211 ft 415 kts 275°
2026-05-03 23:06 41.48163 -84.68792 30952 ft 416 kts 275°
2026-05-03 23:07 41.48321 -84.72655 30703 ft 418 kts 275°
2026-05-03 23:07 41.48480 -84.76537 30443 ft 419 kts 275°
2026-05-03 23:07 41.48639 -84.80425 30200 ft 421 kts 275°
2026-05-03 23:07 41.48794 -84.84276 29951 ft 422 kts 275°
2026-05-03 23:08 41.48950 -84.88186 29655 ft 423 kts 275°
2026-05-03 23:08 41.49104 -84.92099 29365 ft 423 kts 275°
2026-05-03 23:08 41.49256 -84.96006 29077 ft 424 kts 275°
2026-05-03 23:08 41.49408 -84.99958 28794 ft 425 kts 275°
2026-05-03 23:09 41.49559 -85.03896 28514 ft 425 kts 275°
2026-05-03 23:09 41.49708 -85.07847 28220 ft 426 kts 275°
2026-05-03 23:09 41.49857 -85.11800 27951 ft 428 kts 275°
2026-05-03 23:09 41.50005 -85.15762 27683 ft 430 kts 275°
2026-05-03 23:10 41.50152 -85.19759 27416 ft 431 kts 275°
2026-05-03 23:10 41.50298 -85.23761 27153 ft 432 kts 275°
2026-05-03 23:10 41.50443 -85.27765 26897 ft 433 kts 275°
2026-05-03 23:10 41.50588 -85.31794 26514 ft 436 kts 274°
2026-05-03 23:11 41.50732 -85.35845 25980 ft 437 kts 274°
2026-05-03 23:11 41.50874 -85.39898 25403 ft 435 kts 274°
2026-05-03 23:11 41.51012 -85.43859 24822 ft 431 kts 274°
2026-05-03 23:11 41.51151 -85.47897 24274 ft 429 kts 274°
2026-05-03 23:12 41.51286 -85.51864 23855 ft 429 kts 274°
2026-05-03 23:12 41.51418 -85.55841 23129 ft 426 kts 274°
2026-05-03 23:12 41.51543 -85.59698 22460 ft 418 kts 274°
2026-05-03 23:12 41.51660 -85.63558 21901 ft 415 kts 274°
2026-05-03 23:13 41.51748 -85.67406 21339 ft 414 kts 273°
2026-05-03 23:13 41.51823 -85.71238 20781 ft 412 kts 273°
2026-05-03 23:13 41.51893 -85.75019 20236 ft 403 kts 273°
2026-05-03 23:13 41.51962 -85.78717 19711 ft 394 kts 273°
2026-05-03 23:14 41.52031 -85.82333 19199 ft 386 kts 273°
2026-05-03 23:14 41.52100 -85.85888 18700 ft 379 kts 274°
2026-05-03 23:14 41.52167 -85.89374 18209 ft 372 kts 274°
2026-05-03 23:14 41.52233 -85.92800 17665 ft 367 kts 273°
2026-05-03 23:15 41.52297 -85.96169 17183 ft 360 kts 273°
2026-05-03 23:15 41.52359 -85.99455 16853 ft 350 kts 273°
2026-05-03 23:15 41.52418 -86.02680 16425 ft 345 kts 273°
2026-05-03 23:15 41.52476 -86.05861 15963 ft 340 kts 273°
2026-05-03 23:16 41.52515 -86.08993 15505 ft 336 kts 272°
2026-05-03 23:16 41.52509 -86.12104 15065 ft 333 kts 271°
2026-05-03 23:16 41.52488 -86.15177 14631 ft 329 kts 271°
2026-05-03 23:16 41.52466 -86.18219 14202 ft 326 kts 272°
2026-05-03 23:17 41.52446 -86.21234 13771 ft 323 kts 272°
2026-05-03 23:17 41.52428 -86.24225 13301 ft 321 kts 272°
2026-05-03 23:17 41.52412 -86.27183 12840 ft 317 kts 272°
2026-05-03 23:17 41.52396 -86.30104 12410 ft 314 kts 272°
2026-05-03 23:18 41.52380 -86.33010 11991 ft 311 kts 271°
2026-05-03 23:18 41.52364 -86.35879 11575 ft 307 kts 271°
2026-05-03 23:18 41.52346 -86.38677 11179 ft 304 kts 271°
2026-05-03 23:18 41.52328 -86.41448 10989 ft 291 kts 271°
2026-05-03 23:19 41.52309 -86.44086 10823 ft 277 kts 271°
2026-05-03 23:19 41.52292 -86.46597 10665 ft 264 kts 271°
2026-05-03 23:19 41.52276 -86.49019 10528 ft 259 kts 271°
2026-05-03 23:19 41.52259 -86.51414 10401 ft 258 kts 271°
2026-05-03 23:20 41.52242 -86.53815 10271 ft 259 kts 271°
2026-05-03 23:20 41.52223 -86.56222 10134 ft 259 kts 271°
2026-05-03 23:20 41.52204 -86.58620 9968 ft 257 kts 270°
2026-05-03 23:20 41.52185 -86.60984 9802 ft 251 kts 270°
2026-05-03 23:21 41.52166 -86.63289 9636 ft 247 kts 270°
2026-05-03 23:21 41.52147 -86.65567 9467 ft 244 kts 270°
2026-05-03 23:21 41.52128 -86.67821 9312 ft 242 kts 270°
2026-05-03 23:21 41.52108 -86.70063 9160 ft 241 kts 270°
2026-05-03 23:22 41.52068 -86.74518 8858 ft 239 kts 269°
2026-05-03 23:22 41.52047 -86.76732 8704 ft 239 kts 269°
2026-05-03 23:22 41.52027 -86.78918 8552 ft 238 kts 269°
2026-05-03 23:23 41.52006 -86.81129 8407 ft 238 kts 269°
2026-05-03 23:23 41.51984 -86.83336 8255 ft 238 kts 269°
2026-05-03 23:23 41.51962 -86.85536 8103 ft 237 kts 268°
2026-05-03 23:23 41.51939 -86.87734 7951 ft 237 kts 268°
2026-05-03 23:24 41.51916 -86.89934 7805 ft 237 kts 268°
2026-05-03 23:24 41.51892 -86.92126 7663 ft 236 kts 268°
2026-05-03 23:24 41.51868 -86.94316 7506 ft 236 kts 268°
2026-05-03 23:24 41.51843 -86.96503 7348 ft 235 kts 268°
2026-05-03 23:25 41.51818 -86.98680 7202 ft 235 kts 268°
2026-05-03 23:25 41.51792 -87.00864 7059 ft 235 kts 268°
2026-05-03 23:25 41.51767 -87.03048 6915 ft 235 kts 267°
2026-05-03 23:25 41.51741 -87.05232 6765 ft 235 kts 267°
2026-05-03 23:26 41.51715 -87.07414 6617 ft 235 kts 267°
2026-05-03 23:26 41.51687 -87.09598 6463 ft 234 kts 267°
2026-05-03 23:26 41.51660 -87.11764 6307 ft 233 kts 266°
2026-05-03 23:26 41.51824 -87.13915 6128 ft 237 kts 285°
2026-05-03 23:27 41.52705 -87.15795 6012 ft 244 kts 306°
2026-05-03 23:27 41.54088 -87.17158 5898 ft 253 kts 327°
2026-05-03 23:27 41.55722 -87.18062 5762 ft 256 kts 332°
2026-05-03 23:27 41.57406 -87.18877 5610 ft 257 kts 332°
2026-05-03 23:28 41.59089 -87.19683 5482 ft 257 kts 333°
2026-05-03 23:28 41.60208 -87.20223 5393 ft 258 kts 332°
2026-05-03 23:28 41.61893 -87.21046 5266 ft 258 kts 332°
2026-05-03 23:28 41.63576 -87.21877 5142 ft 258 kts 332°
2026-05-03 23:29 41.65255 -87.22713 5018 ft 258 kts 332°
2026-05-03 23:29 41.66940 -87.23555 4886 ft 259 kts 332°
2026-05-03 23:29 41.69173 -87.24674 4715 ft 259 kts 331°
2026-05-03 23:29 41.70857 -87.25518 4579 ft 255 kts 332°
2026-05-03 23:30 41.71967 -87.26073 4489 ft 250 kts 332°
2026-05-03 23:30 41.73587 -87.26885 4372 ft 247 kts 331°
2026-05-03 23:30 41.75171 -87.27682 4265 ft 246 kts 331°
2026-05-03 23:30 41.76740 -87.28571 4143 ft 244 kts 327°
2026-05-03 23:31 41.78272 -87.29535 4015 ft 240 kts 327°
2026-05-03 23:31 41.79767 -87.30474 3902 ft 234 kts 327°
2026-05-03 23:31 41.81225 -87.31387 3784 ft 232 kts 327°
2026-05-03 23:31 41.82693 -87.32304 3687 ft 232 kts 327°
2026-05-03 23:32 41.84086 -87.33320 3557 ft 221 kts 310°
2026-05-03 23:32 41.84847 -87.34943 3459 ft 197 kts 281°
2026-05-03 23:32 41.85058 -87.36686 3359 ft 184 kts 265°
2026-05-03 23:32 41.85047 -87.38389 3290 ft 182 kts 265°
2026-05-03 23:33 41.85040 -87.40087 3232 ft 183 kts 265°
2026-05-03 23:33 41.85034 -87.41800 3137 ft 185 kts 266°
2026-05-03 23:33 41.85030 -87.43543 3048 ft 187 kts 265°
2026-05-03 23:33 41.85027 -87.45289 3007 ft 186 kts 265°
2026-05-03 23:34 41.85025 -87.46986 2992 ft 178 kts 266°
2026-05-03 23:34 41.85024 -87.48627 2986 ft 173 kts 265°
2026-05-03 23:34 41.85021 -87.50240 2999 ft 174 kts 265°
2026-05-03 23:34 41.85018 -87.51853 3010 ft 176 kts 265°
2026-05-03 23:35 41.85016 -87.53496 3006 ft 177 kts 265°
2026-05-03 23:35 41.85009 -87.55152 3000 ft 178 kts 264°
2026-05-03 23:35 41.84943 -87.56806 3002 ft 178 kts 263°
2026-05-03 23:35 41.84867 -87.58461 2998 ft 178 kts 263°
2026-05-03 23:36 41.84792 -87.60113 2995 ft 176 kts 263°
2026-05-03 23:36 41.84713 -87.61735 2823 ft 174 kts 262°
2026-05-03 23:36 41.84635 -87.63329 2613 ft 167 kts 261°
2026-05-03 23:36 41.84510 -87.64830 2376 ft 155 kts 250°
2026-05-03 23:37 41.84109 -87.66096 2220 ft 143 kts 245°
2026-05-03 23:37 41.83718 -87.67319 2021 ft 142 kts 244°
2026-05-03 23:37 41.83335 -87.68477 1813 ft 130 kts 239°
2026-05-03 23:37 41.82875 -87.69481 1702 ft 132 kts 233°
2026-05-03 23:38 41.82273 -87.70421 1560 ft 131 kts 225°
2026-05-03 23:38 41.81587 -87.71280 1421 ft 139 kts 221°
2026-05-03 23:38 41.80868 -87.72161 1239 ft 140 kts 224°
2026-05-03 23:38 41.80190 -87.73072 979 ft 136 kts 225°
2026-05-03 23:39 41.79520 -87.73923 753 ft 136 kts 218°
2026-05-03 23:39 41.78823 -87.74789 636 ft 130 kts 219°
2026-05-03 23:39 41.78419 -87.75295 631 ft 27 kts 224°
2026-05-03 23:39 41.78336 -87.75320 632 ft 7 kts 142°
2026-05-03 23:40 41.78325 -87.75307 632 ft 0 kts 135°
2026-05-03 23:40 41.78313 -87.75291 629 ft 4 kts 135°
2026-05-03 23:40 41.78327 -87.75208 634 ft 17 kts 44°
2026-05-03 23:41 41.78420 -87.75093 636 ft 24 kts 44°
2026-05-03 23:41 41.78504 -87.74986 633 ft 16 kts 43°
2026-05-03 23:41 41.78572 -87.74902 628 ft 8 kts 43°
2026-05-03 23:41 41.78583 -87.74889 631 ft 8 kts 43°
2026-05-03 23:42 41.78611 -87.74853 635 ft 7 kts 44°
2026-05-03 23:42 41.78639 -87.74816 636 ft 1 kts 46°
2026-05-03 23:42 41.78643 -87.74807 631 ft 2 kts 53°
2026-05-03 23:42 41.78660 -87.74771 629 ft 7 kts 69°
2026-05-03 23:43 41.78665 -87.74714 628 ft 6 kts 93°
2026-05-03 23:43 41.78659 -87.74680 632 ft 3 kts 106°
2026-05-03 23:43 41.78656 -87.74665 633 ft 1 kts 107°
2026-05-03 23:43 41.78655 -87.74664 632 ft 0 kts 107°